C/2023 A2 ( SWAN )

Japanese version
Home page
Updated on March 26, 2023

---------------------------------------------------------------------

* Profile

Discovery Date January 6, 2023
Magnitude 12 mag
Discoverer Vladimir Bezugly (Dnipro, Ukraine)

* Pictures

* Orbital Elements

Epoch 2023 Feb. 25.0 TT = JDT 2460000.5
T 2023 Jan. 20.85328 TT                                 Rudenko
q   0.9584609            (2000.0)            P               Q
z  -0.0212010      Peri.  143.55441     +0.11376679     -0.01729526
 +/-0.0004177      Node    94.65996     -0.96749374     -0.22923070
e   1.0203203      Incl.   94.69015     +0.22586054     -0.97321845
>From 167 observations 2022 Dec. 26-2023 Mar. 11, mean residual 0".9.

* Finding Charts

* Magnitudes Graph

        m1 = 11.0 + 5 log d + 10.0 log r

---------------------------------------------------------------------

The orbital elements are published on M.P.E.C. 2023-E68.
The charts are made with StellaNavigator Ver.10 (AstroArts).
The magnitudes graphs are made with Comet for Windows.

---------------------------------------------------------------------

Copyright(C) Seiichi Yoshida (comet@aerith.net). All rights reserved.